Regional Weather Roundup
Issued by NWS Goodland, KS

Home | Current Version | Previous Version | Text Only | Print | Product List | Glossary On
Versions: 1 2 3 4 5 6 7 8 9 10 11 12 13 14 15 16 17 18 19 20 21 22 23 24 25 26 27 28 29 30 31 32 33 34 35 36 37 38 39 40 41 42 43 44 45 46 47 48 49 50
000
ASUS43 KGLD 292359
RWRGLD

GOODLAND FORECAST AREA HOURLY WEATHER ROUNDUP
NATIONAL WEATHER SERVICE GOODLAND KS
600 PM MDT SAT AUG 29 2015

...OFFICIAL OBSERVATIONS...

CITY           SKY/WX    TMP DP  RH WIND       PRES   REMARKS
GOODLAND KS    SUNNY     87  39  18 S9        30.09F
HILL CITY KS   SUNNY     86  54  33 E7        30.04F
IMPERIAL NEB   SUNNY     88  48  25 SE9       30.05F
MCCOOK NEB     MOSUNNY   86  57  37 E10       30.04S
AKRON CO       SUNNY     87  41  19 S13       30.12S
BURLINGTON CO  SUNNY     83  44  25 S10       30.13F
LIMON CO       SUNNY     80  41  24 S12       30.19F
$$

...UNOFFICIAL OBSERVATIONS...

CITY           SKY/WX    TMP DP  RH WIND       PRES   REMARKS
COLBY KS       SUNNY     90  52  27 E12       30.09S
GOVE KS          N/A     90  32  12 MISG        N/A
LENORA KS        N/A     85  32  15 MISG        N/A
NORTON KS      SUNNY     81  48  32 E5        30.04S
SHARON SPRINGS   N/A     88  46  22 CALM        N/A
TRENTON NEB      N/A     87  32  14 E12         N/A
YUMA CO          N/A     86  47  25 S6          N/A
$$



USA.gov is the U.S. government's official web portal to all federal, state and local government web resources and services.